Location: Unspecified
(0.0000°N, 0.0000°E)
Time: 21:18:28
(UTC+00:00)

IRIDIUM 109 - Visible Passes

Search period start: 26 February 2024 00:00
Search period end: 07 March 2024 00:00
Orbit: 776 x 779 km, 86.4° (Epoch: 25 February)

Date Brightness Start Highest point End Pass type
(mag) Time Alt. Az. Time Alt. Az. Time Alt. Az.
26 Feb ? 19:37:07 10° SW 19:41:16 24° W 19:45:25 10° NW visible
27 Feb ? 19:02:44 10° SSW 19:07:49 54° W 19:12:53 10° NNW visible
28 Feb ? 18:29:11 10° S 18:34:22 67° E 18:39:31 10° N visible
29 Feb ? 19:38:26 10° SW 19:41:19 15° W 19:44:13 10° WNW visible
01 Mar ? 19:03:13 10° SSW 19:07:52 33° W 19:12:31 10° NNW visible
02 Mar ? 18:29:12 10° S 18:34:25 75° W 18:39:36 10° N visible
03 Mar ? 05:24:05 10° NE 05:27:25 17° E 05:30:44 10° SE visible
04 Mar ? 19:04:06 10° SW 19:07:55 21° W 19:11:44 10° NW visible
05 Mar ? 18:29:30 10° SSW 18:34:28 46° W 18:39:25 10° NNW visible
06 Mar ? 05:23:05 10° NNE 05:27:27 28° E 05:31:51 10° SSE visible
